Location: Capelle
(50.3413°N, 1.9974°E)
Time: 14:35:50
(UTC+00:00)

Cosmos 1953 - Pass Details

Date: 12 January 2026
Orbit: 474 x 489 km, 82.5° (Epoch: 15 February)

Event Time Altitude Azimuth Distance (km) Brightness Sun altitude
Rises 17:12:11 0° 358° (N) 2,588 5.5 -9.1°
Reaches altitude 10° 17:14:32 10° 11° (N) 1,701 4.5 -9.5°
Maximum altitude 17:17:46 27° 71° (ENE) 972 3.0 -10.0°
Drops below altitude 10° 17:20:59 10° 132° (SE) 1,690 4.5 -10.4°
Sets 17:23:18 0° 144° (SE) 2,567 5.6 -10.8°
